RH
84 84 83 79 78 82 85 86 77 55 40 35 22 19 40 51 35 27 36 37 38 49 48 39 37 36 33 34 35 35 36 34 29 29 34 36 37 39 39 37 38 39 39 41 39 38 41 36 31 33 28 22 23 21 21 21 17 19 21 24 37 42 37 38 39 31 23 20 19 22 26 29 32 32 27 30 35 34 38 40 44 51 46 36 40 44 45
79 80 84 81 76 78 83 87 85 60 33 21 19 32 50 48 34 32 39 42 41 40 42 42 40 36 36 39 40 37 37 37 34 32 33 34 37 40 39 37 40 41 38 38 37 38 46 42 31 30 30 27 25 21 20 22 19 19 24 28 35 39 38 42 46 43 35 33 37 39 35 40 49 46 36 35 36 35 36 36 41 51 46 41 51 52 45
82 81 86 85 77 76 80 85 86 63 31 18 21 35 48 50 45 38 36 43 43 35 34 37 37 36 42 47 45 39 37 37 36 35 32 30 33 38 38 36 38 40 37 38 37 35 43 45 37 32 31 29 25 21 23 24 20 20 26 27 28 34 39 42 48 53 48 46 52 51 42 42 49 48 40 37 36 39 42 41 47 52 43 39 48 49 44
92 90 89 88 81 77 76 81 85 66 40 28 23 29 46 52 42 29 27 35 37 32 32 35 36 37 44 50 46 42 41 38 33 35 35 32 32 36 37 36 39 40 40 46 48 41 40 43 42 38 35 32 28 24 25 23 20 24 28 25 24 30 36 39 46 53 50 47 49 45 40 41 43 42 41 38 36 39 44 48 52 48 42 43 44 41 39
99 96 92 90 87 79 72 78 86 69 50 41 29 34 58 61 43 32 35 37 30 27 31 34 35 37 42 46 45 45 47 43 36 37 36 33 34 37 37 38 44 46 47 54 56 46 40 42 44 44 41 36 32 30 27 25 25 28 26 23 26 32 36 38 46 52 48 45 47 43 42 45 42 41 43 41 38 39 44 51 50 45 49 51 39 32 39
100 96 93 94 93 84 72 77 86 74 59 49 40 47 61 56 43 42 50 48 35 31 38 43 42 40 38 39 41 45 46 45 45 42 36 35 37 41 43 41 43 45 45 55 61 53 48 48 47 49 49 45 44 42 33 27 29 28 23 23 29 39 45 45 49 54 48 43 43 39 38 38 35 36 41 42 43 45 48 49 44 44 56 56 43 42 51
98 95 96 98 98 90 76 76 86 85 69 51 49 61 61 50 50 56 62 60 46 38 42 45 46 43 38 38 41 44 46 47 49 43 41 44 41 41 49 46 43 44 43 49 58 58 58 59 54 53 55 54 55 56 48 38 32 27 26 31 37 46 53 49 48 51 47 40 37 33 31 32 31 34 37 38 40 43 46 47 43 44 50 49 45 48 51
98 98 98 99 99 92 79 78 87 94 83 64 63 74 67 59 66 71 70 65 52 43 40 42 45 40 36 42 43 43 47 50 49 45 48 55 50 44 48 46 44 48 46 45 50 49 52 58 58 56 59 61 61 60 56 48 42 35 32 36 45 54 54 44 42 48 45 38 35 32 31 34 37 37 34 34 36 37 38 41 42 45 47 45 50 56 51
98 98 98 98 99 94 88 88 93 96 91 77 70 71 68 70 77 79 77 65 50 44 39 38 44 40 36 43 45 46 51 50 49 49 47 50 50 44 45 46 46 48 48 47 47 44 44 48 49 49 52 56 57 57 54 49 49 48 39 37 46 58 56 44 41 49 46 36 34 34 32 35 40 40 36 34 37 37 37 36 36 39 43 46 55 62 52
97 96 95 96 99 97 94 96 98 96 94 88 78 72 74 78 76 76 79 70 55 48 40 35 41 42 41 45 44 45 48 42 44 53 49 42 41 41 44 49 52 55 56 53 49 44 42 40 38 39 41 41 42 45 47 45 48 51 47 42 42 48 52 46 43 49 45 35 33 34 35 42 45 43 40 37 36 37 38 38 36 39 45 49 53 51 41
95 93 92 94 98 98 95 97 99 96 96 94 79 67 74 84 81 76 78 70 55 46 42 40 40 40 43 48 46 43 43 40 43 54 57 50 45 47 50 50 54 59 58 52 46 41 39 37 36 36 37 38 38 39 41 41 43 46 46 45 43 42 46 46 44 49 49 40 35 38 46 53 49 42 38 35 35 37 40 40 38 40 45 47 44 39 34
92 90 92 96 99 101 98 97 100 98 99 98 79 61 66 77 79 82 81 71 59 49 43 42 44 47 51 52 49 48 48 47 47 51 58 58 55 56 54 50 54 59 54 48 44 40 37 39 40 39 37 37 38 38 39 40 41 41 39 42 45 45 47 46 43 47 47 39 41 53 58 49 39 34 32 31 33 37 41 41 37 36 38 38 36 35 34
89 90 95 95 93 96 96 96 99 99 99 100 84 65 58 55 64 85 89 74 62 53 47 47 49 54 57 54 53 56 54 51 52 53 55 58 58 57 54 50 50 51 48 45 43 41 42 46 48 45 37 33 35 37 38 39 40 39 37 37 41 46 49 48 43 44 45 44 52 64 58 39 31 31 31 33 37 37 41 45 39 34 36 36 36 37 35
91 91 92 89 87 91 94 94 98 100 99 100 91 77 67 56 60 83 94 79 62 52 48 51 51 51 54 56 59 63 60 57 58 57 57 58 58 57 55 53 51 51 48 45 42 44 51 57 58 51 40 36 41 42 36 35 36 36 35 34 36 40 44 48 48 45 45 49 53 55 50 43 39 38 36 39 41 38 44 52 47 36 34 34 33 35 37
93 90 88 88 90 94 95 95 99 100 99 101 97 86 77 67 61 75 92 88 71 57 52 55 61 61 59 59 61 66 65 62 61 61 59 58 58 57 55 54 56 56 52 46 44 46 52 58 61 57 48 46 49 48 41 35 32 32 34 36 36 37 38 44 53 51 46 50 55 55 57 54 44 40 40 39 39 39 42 49 47 36 32 32 33 36 37
90 89 90 93 95 97 97 96 99 100 99 100 99 87 77 69 58 64 87 94 80 65 57 58 69 73 67 63 65 67 66 65 67 68 66 61 58 57 56 56 58 58 53 49 49 51 54 59 60 57 52 47 48 51 46 39 35 33 34 35 37 40 39 42 55 61 56 59 64 63 61 52 38 37 40 38 40 43 41 45 48 40 34 35 36 37 37
89 91 94 96 97 97 98 98 98 100 100 99 98 88 81 78 63 59 81 94 81 67 59 56 62 67 65 63 64 65 70 76 79 81 78 71 63 59 59 58 58 57 53 53 56 55 56 58 58 56 51 41 42 49 46 41 44 45 44 47 49 52 51 52 63 69 65 65 64 56 50 44 34 33 35 35 40 42 42 50 54 45 38 38 39 39 39
86 91 96 97 96 96 98 98 97 99 100 99 96 86 81 82 70 61 78 89 76 64 60 56 59 62 64 67 68 72 81 84 82 83 82 73 66 64 65 63 60 58 54 55 57 57 58 59 55 55 52 39 36 46 46 44 49 47 45 51 57 59 59 60 66 70 68 69 69 61 52 43 34 32 34 38 42 43 48 56 54 44 39 40 40 41 42
87 90 94 96 97 96 97 98 98 98 99 100 97 84 76 77 70 67 84 92 79 67 63 63 67 70 72 75 75 75 81 84 85 87 83 75 73 73 68 61 59 57 52 51 57 59 62 61 49 46 52 46 40 47 49 47 46 42 40 45 50 54 59 60 63 68 67 68 72 71 62 46 37 37 39 42 46 47 49 52 47 41 40 39 40 41 41
89 89 91 93 97 98 98 98 100 99 99 100 96 84 81 85 76 69 81 92 86 73 64 64 69 70 71 75 75 73 76 81 86 89 85 82 81 78 71 66 69 68 58 58 66 65 62 61 51 46 54 54 49 52 51 46 40 36 38 43 42 43 51 55 54 56 60 66 72 74 65 47 38 39 40 41 43 42 41 42 41 39 39 39 39 40 39
87 88 89 92 97 100 99 99 100 100 99 101 97 89 89 94 82 65 66 80 89 84 71 66 69 72 75 77 76 77 79 79 81 87 90 89 85 81 78 77 81 84 78 75 75 67 61 65 62 55 54 51 48 51 51 50 46 35 32 42 45 42 46 50 46 43 51 64 67 62 52 42 37 38 39 39 38 34 35 39 39 39 41 41 40 39 40
87 88 89 92 97 100 100 99 100 100 99 100 100 96 95 96 86 70 61 67 82 85 73 64 66 73 79 80 81 85 84 78 77 82 89 94 89 81 80 77 77 82 84 82 79 71 70 76 74 69 65 58 54 57 57 59 59 45 34 44 51 44 40 45 47 44 46 53 52 46 41 39 36 35 36 37 37 35 36 38 37 38 41 41 41 41 41
83 88 87 88 94 99 100 99 100 100 99 100 100 99 99 98 94 86 76 75 84 86 77 70 71 73 75 76 79 83 83 82 81 76 80 93 95 86 81 81 80 79 78 78 79 78 81 83 78 79 81 69 62 68 70 64 59 48 40 42 42 34 35 43 47 45 44 43 40 37 38 38 36 36 35 35 36 37 37 37 37 39 42 42 43 43 43
71 81 85 86 90 94 96 98 100 100 99 100 100 99 100 100 99 97 94 92 94 92 81 75 75 75 73 71 73 76 80 87 90 80 75 83 91 90 85 80 78 76 72 72 76 81 87 84 76 80 83 68 58 68 75 67 57 48 46 46 39 36 47 54 51 51 56 54 43 36 38 39 38 38 36 33 34 34 35 37 39 40 43 44 44 46 47
69 78 87 91 91 91 91 95 100 100 99 100 100 99 100 100 99 100 99 97 98 94 84 75 72 70 68 66 67 69 72 78 86 87 83 80 82 85 85 81 79 79 78 79 84 88 89 82 74 78 80 67 58 65 69 65 57 48 49 53 46 44 54 58 51 52 58 57 45 38 39 40 38 37 36 33 33 34 33 35 38 39 43 46 46 48 50
75 80 88 94 95 94 94 96 100 100 99 100 100 100 100 100 99 100 100 99 98 95 91 83 75 70 70 72 73 72 72 73 78 84 89 89 85 84 84 84 83 83 83 87 91 92 88 79 73 77 76 64 57 60 60 58 53 49 50 50 45 45 51 51 48 50 52 49 44 40 41 40 37 37 36 33 34 36 36 36 38 38 40 44 47 49 50
79 80 85 91 95 97 98 99 100 100 100 100 100 99 100 100 100 99 100 100 97 92 89 84 74 69 73 77 76 74 73 73 75 78 84 89 90 90 91 90 87 86 87 89 92 94 92 85 77 74 68 60 56 58 56 53 52 55 55 49 44 49 53 49 52 59 59 51 44 42 45 47 43 41 39 36 36 37 37 37 39 40 40 42 46 49 51
83 83 86 91 95 97 99 100 100 99 100 100 100 100 100 100 100 100 99 101 98 91 88 87 82 79 78 74 70 70 71 71 73 77 79 82 84 88 91 91 89 89 89 89 89 87 84 80 74 66 63 63 63 60 55 52 56 60 58 49 45 50 52 50 55 61 58 49 43 43 48 52 49 45 43 39 38 38 36 37 41 43 43 44 47 50 52
90 88 90 94 97 98 99 100 100 100 100 99 99 100 100 99 100 100 99 100 100 97 97 96 89 82 76 68 63 66 68 69 72 74 75 77 78 80 81 83 85 85 85 88 90 84 76 74 71 66 68 74 75 69 63 62 64 62 52 44 42 45 47 50 54 55 53 50 49 49 50 50 49 47 43 39 37 38 36 36 39 42 45 46 47 50 53
97 93 93 97 100 100 100 100 100 99 100 100 99 100 101 99 96 95 96 99 100 99 101 98 88 78 73 69 66 65 64 67 72 74 75 76 76 75 77 78 80 83 86 90 92 86 77 74 69 65 68 76 80 77 71 66 62 55 45 41 43 44 46 49 51 52 55 56 55 54 53 51 51 50 46 40 37 36 36 35 37 41 45 47 48 50 53
100 97 95 97 100 100 99 100 100 100 100 100 100 99 98 95 89 86 90 97 101 100 99 97 89 80 72 67 65 64 63 63 66 69 71 74 74 75 76 77 78 82 85 88 88 84 77 73 69 63 61 68 76 76 72 69 68 59 47 44 46 46 47 49 50 52 56 57 57 57 54 52 52 50 45 40 37 36 36 36 37 41 45 47 49 50 52
100 100 98 98 99 101 100 99 100 100 99 100 100 98 95 94 90 84 84 92 100 101 100 97 90 77 65 59 61 64 66 67 68 67 67 70 72 73 74 75 76 77 79 80 80 77 72 70 69 64 60 66 75 78 77 80 79 66 53 50 52 50 50 51 51 51 51 51 51 51 50 50 50 46 42 40 38 37 36 36 36 39 44 49 51 51 52
95 98 100 100 98 100 100 99 100 100 99 99 101 100 97 97 92 83 81 91 100 101 98 95 88 77 67 61 60 63 66 69 71 70 67 67 71 72 73 76 76 75 77 80 79 75 70 67 65 64 63 66 73 78 78 75 69 59 54 55 55 52 50 50 49 50 50 50 50 49 49 50 48 45 43 41 38 36 36 37 37 39 44 51 54 53 54
89 92 97 100 100 99 100 100 99 100 100 99 100 100 100 100 94 85 83 91 99 101 99 95 87 79 72 63 58 62 67 67 70 74 73 71 72 73 73 76 80 80 79 80 78 75 70 65 64 65 64 61 68 81 83 71 57 53 55 55 55 54 52 49 49 50 52 53 52 49 48 49 50 50 48 42 37 37 37 36 38 40 42 47 51 53 55
88 89 91 95 99 100 100 100 100 100 100 100 100 99 100 100 97 92 88 89 93 97 98 95 88 84 80 71 63 67 73 70 69 76 79 77 78 79 77 77 80 80 76 74 74 72 69 66 69 71 67 65 75 86 82 67 56 55 55 53 52 52 50 48 51 55 56 56 54 50 51 52 51 49 46 40 36 37 37 36 38 40 40 43 49 53 56
87 90 90 92 98 100 99 100 100 99 100 100 99 100 100 100 99 96 92 90 91 91 90 88 83 80 79 73 65 69 76 70 64 70 80 83 81 80 80 80 77 72 68 67 68 67 64 64 69 73 70 71 75 73 63 56 54 54 52 50 49 50 51 51 55 59 60 58 55 53 55 57 53 46 42 39 36 36 36 37 37 38 40 43 46 50 53
87 94 95 96 99 100 100 100 100 99 100 100 99 99 100 99 99 98 96 95 94 93 93 91 83 75 71 67 63 67 70 63 57 65 78 82 75 71 75 79 77 72 71 69 65 62 59 59 66 74 73 68 64 57 52 52 52 48 47 48 48 49 52 54 56 58 58 57 55 54 54 55 52 47 42 40 38 37 37 37 37 38 41 43 44 48 52
91 97 99 98 100 100 99 99 100 100 99 100 100 100 100 100 99 99 99 100 98 97 98 96 87 77 72 68 67 69 68 63 63 69 73 73 70 67 70 74 71 71 76 72 60 56 58 58 62 70 68 59 54 54 53 53 51 49 48 49 48 48 51 54 57 60 59 57 55 53 51 52 55 54 50 46 43 41 39 38 37 37 40 43 45 48 51
96 99 99 99 100 100 99 100 100 99 100 101 99 97 97 100 99 93 90 93 94 93 93 90 82 77 73 68 66 68 68 69 74 75 72 73 75 72 72 74 72 74 81 74 55 50 58 61 62 68 67 56 51 53 53 51 50 49 47 47 48 51 56 58 60 61 60 59 57 55 54 56 61 63 61 57 54 50 45 42 40 39 41 44 46 47 50
98 100 99 99 100 99 99 100 100 99 100 100 97 93 93 97 95 84 79 83 84 79 76 75 70 69 71 70 66 67 72 76 77 75 75 78 77 74 73 74 71 75 84 74 53 45 53 56 57 61 61 51 44 44 45 44 43 44 45 47 50 53 55 56 57 57 56 56 56 54 53 55 60 62 62 59 57 54 50 47 44 42 42 44 46 48 51
98 101 100 99 100 100 99 100 100 100 99 98 95 90 89 91 89 79 76 81 79 68 62 62 59 59 65 68 65 68 77 82 81 78 79 80 80 81 81 73 69 79 87 73 50 42 48 53 55 55 49 41 37 37 38 38 39 42 46 48 47 47 48 48 49 51 51 50 49 48 47 49 55 63 64 59 54 53 52 50 48 45 44 46 49 52 53
100 101 99 98 100 100 99 100 99 96 93 92 92 88 82 81 82 79 74 74 68 57 52 54 54 55 62 67 66 69 78 86 88 85 83 82 82 85 80 71 74 87 85 63 45 44 51 56 59 53 42 36 37 37 38 41 43 44 46 46 44 44 45 46 47 49 49 47 45 44 45 45 49 56 61 59 56 55 54 51 49 47 46 47 50 52 53
99 100 100 100 100 100 99 98 95 91 88 89 93 92 84 78 76 72 65 61 56 50 50 55 59 63 67 69 70 76 84 89 89 86 82 80 80 82 82 81 83 81 67 50 47 55 59 59 56 48 38 35 37 37 39 43 44 44 44 45 44 44 44 46 49 51 51 49 45 44 45 46 46 48 52 54 53 52 49 46 46 46 46 49 52 52 54
99 100 100 99 98 98 95 90 88 89 90 88 88 88 84 78 70 62 55 52 49 46 50 56 61 63 64 66 71 80 85 86 87 88 84 79 78 83 90 88 75 61 53 52 56 60 58 53 48 41 36 35 37 39 42 46 48 47 45 44 44 44 44 45 48 50 51 51 48 45 44 45 44 44 46 46 46 46 45 44 45 46 47 52 54 52 52
99 100 99 97 98 95 87 81 82 86 86 79 74 72 69 63 55 49 48 48 44 43 49 56 58 62 68 73 76 76 77 81 88 89 82 78 82 86 83 71 57 51 58 64 63 61 61 55 45 39 37 38 39 42 45 46 48 48 46 43 44 46 46 46 47 48 49 50 49 47 46 46 44 44 44 44 44 46 45 45 47 50 54 58 57 52 53
99 98 93 93 94 88 78 75 79 80 72 63 58 57 54 46 39 39 47 52 50 48 55 60 59 61 70 77 77 73 73 79 85 80 75 81 89 82 66 58 62 69 75 75 70 66 61 51 40 36 40 43 44 45 47 47 47 47 46 45 46 48 48 48 48 47 47 48 47 47 47 46 45 45 45 45 45 47 47 47 50 55 59 60 56 53 56
100 96 90 93 94 85 75 72 71 64 55 48 43 43 43 40 37 39 46 51 51 51 56 62 64 67 72 77 78 74 69 72 77 74 73 79 82 71 62 68 80 82 79 79 75 63 49 41 40 43 46 48 49 49 49 50 50 49 48 48 48 47 47 48 48 47 48 48 47 47 47 47 47 47 47 47 46 47 49 51 54 59 61 60 56 55 57
97 93 90 92 88 77 71 69 63 53 49 46 42 38 38 37 36 37 41 46 52 55 57 61 66 70 72 77 79 74 69 74 82 79 72 74 78 78 79 86 86 76 67 66 62 50 39 40 49 52 49 48 50 50 49 52 54 52 50 50 50 50 49 49 47 47 48 49 49 50 49 48 48 48 48 48 48 48 50 53 57 60 62 60 57 56 57
99 95 90 86 78 65 58 58 54 47 44 43 40 38 37 35 34 36 38 43 52 60 63 66 71 72 69 72 80 80 78 82 85 79 75 83 89 85 81 83 82 72 60 52 46 40 37 39 46 49 48 48 51 52 52 56 60 57 53 52 52 52 52 51 50 49 49 49 49 50 50 49 50 50 49 49 49 49 50 55 60 62 60 56 55 56 56
101 99 93 87 78 65 56 53 50 46 41 36 33 33 34 33 32 35 38 42 53 67 76 79 78 71 64 69 81 84 77 72 72 73 79 86 85 76 73 76 73 62 49 40 36 36 37 38 42 46 47 48 51 55 57 60 62 60 57 57 56 54 53 51 50 50 51 50 49 49 49 49 50 51 50 50 51 51 53 58 62 61 57 54 53 55 57
100 99 95 88 79 68 58 53 50 45 40 36 34 34 35 34 33 38 44 49 57 69 76 73 69 69 73 81 87 81 67 60 64 71 72 69 65 66 73 73 60 46 40 38 36 36 38 40 43 47 47 48 52 57 59 61 62 61 60 60 60 57 54 53 51 51 52 52 51 51 51 50 51 52 52 52 52 54 57 61 63 60 56 54 54 55 57
95 93 89 84 79 73 66 60 55 49 44 43 42 40 39 36 34 42 55 61 61 63 66 64 66 76 84 81 72 63 58 59 67 73 69 59 53 54 57 54 44 38 37 37 36 37 40 42 46 50 52 53 56 59 60 61 61 60 59 59 59 58 57 57 55 52 51 51 50 51 52 52 52 53 54 54 54 57 59 61 62 60 56 54 55 56 57
Wind_Speed
20 22 23 23 23 22 22 23 26 27 26 24 20 17 11 9 11 10 10 8 3 1 4 5 5 4 6 9 10 9 6 7 9 6 3 3 3 3 4 5 5 4 3 5 7 6 6 8 7 6 7 4 5 2 6 4 3 4 6 5 5 4 4 5 6 7 9 10 5 2 4 7 7 7 6 6 5 5 6 6 5 5 7 6 6 6 1
21 22 23 24 23 21 21 22 23 25 25 24 22 16 12 14 16 14 10 5 2 3 3 4 3 4 7 7 8 10 8 8 9 8 5 3 3 4 5 4 3 4 5 6 7 6 4 7 7 6 7 4 7 9 1 5 2 5 3 4 5 4 4 3 5 7 6 5 2 2 3 3 3 5 7 7 8 9 8 7 5 6 7 6 5 5 1
22 22 24 25 23 20 20 19 21 23 23 21 19 15 14 15 13 11 9 6 5 6 3 2 4 4 6 7 7 9 8 7 9 9 9 8 6 4 5 5 5 6 7 7 8 7 5 6 7 7 8 4 6 9 1 6 4 4 1 4 6 5 5 5 5 6 6 4 2 3 3 2 2 5 8 10 10 10 9 6 5 6 7 6 6 6 3
22 22 25 26 23 19 19 18 18 20 21 20 18 13 12 10 6 7 7 6 7 8 5 3 4 3 4 4 6 8 8 8 10 9 9 9 5 4 6 7 7 7 6 7 8 8 8 7 7 8 8 5 7 8 4 8 10 6 8 3 5 5 6 7 8 7 8 9 9 8 8 8 8 9 11 12 11 10 9 6 6 7 7 7 7 7 7
21 23 26 25 21 19 18 16 15 18 19 19 18 13 8 7 5 7 7 4 7 7 5 5 4 3 4 3 3 7 8 9 10 6 7 8 6 5 5 5 4 5 6 6 7 9 9 9 8 9 9 8 10 12 14 16 8 10 10 5 3 4 7 8 9 10 11 13 14 13 11 11 12 13 13 13 12 11 10 9 10 8 7 8 7 7 8
20 22 25 22 20 19 17 14 13 15 17 17 16 11 6 7 9 10 8 3 7 6 3 4 4 5 5 3 3 7 8 8 8 7 8 9 7 5 4 4 5 6 6 6 7 8 9 8 7 8 8 9 9 10 14 11 3 9 6 5 2 4 7 8 9 11 13 14 14 15 13 12 13 13 14 14 13 13 12 12 13 11 8 9 10 9 10
18 21 22 20 21 21 16 12 12 13 15 16 13 8 8 10 11 11 11 7 10 12 8 6 6 6 5 3 4 6 8 7 7 7 8 8 8 7 6 7 7 8 8 7 6 7 8 8 9 7 8 9 7 6 10 8 2 4 7 4 1 3 5 7 10 11 13 14 15 15 14 13 13 13 14 14 14 13 13 13 14 13 13 13 14 14 11
18 19 19 19 22 20 14 11 12 13 13 13 9 7 9 11 9 11 14 12 13 16 12 7 6 6 5 5 6 7 7 7 6 7 7 6 7 8 9 8 7 8 9 9 8 8 8 9 10 9 9 9 7 6 5 6 8 10 7 2 1 2 4 7 9 9 11 13 13 13 12 11 13 15 15 15 14 14 13 12 12 12 13 13 13 14 10
17 17 16 18 22 19 12 11 13 14 13 11 9 7 8 10 9 10 11 10 10 13 11 7 6 6 6 5 5 5 6 7 6 7 8 10 8 7 8 9 8 7 9 10 9 10 10 10 12 12 11 10 10 8 6 5 7 9 7 4 4 4 5 8 8 8 9 10 12 13 11 11 14 15 15 13 12 11 10 10 10 10 11 11 9 9 7
15 15 15 18 20 16 11 11 11 12 13 11 9 8 8 10 10 9 8 7 9 11 10 8 7 6 4 3 4 6 7 8 8 6 7 10 10 6 7 9 7 6 9 10 11 13 14 14 15 16 16 16 15 14 13 12 10 8 7 6 4 4 5 6 7 8 8 10 13 13 11 11 10 8 6 6 7 7 7 9 9 8 9 9 7 6 5
16 17 16 17 17 14 12 12 12 12 11 11 10 9 8 9 9 9 7 6 8 11 9 7 7 6 4 3 5 8 9 10 10 7 5 8 11 9 10 11 8 5 8 12 14 16 17 18 19 19 19 19 18 17 18 17 16 13 10 6 5 7 7 6 6 7 8 11 13 11 10 9 5 2 3 4 5 5 6 8 9 8 7 7 7 8 7
19 19 18 17 16 15 14 13 13 12 11 11 11 9 6 7 8 8 7 6 7 10 9 6 7 8 7 6 6 8 10 11 11 10 9 10 13 13 13 12 8 6 10 14 16 17 17 17 18 19 19 19 18 18 17 16 16 17 16 11 7 7 7 6 6 6 7 9 9 9 8 5 2 3 5 4 3 2 5 8 9 9 8 9 10 10 8
19 18 16 15 15 15 15 15 14 13 11 10 11 9 8 9 7 5 7 7 6 8 8 8 10 10 7 8 8 8 11 13 13 13 13 12 14 15 14 13 11 11 13 15 16 16 13 11 12 13 13 13 13 15 16 16 16 17 18 15 11 7 6 5 6 7 7 7 6 7 7 7 9 11 7 2 3 1 5 6 7 7 8 7 8 8 7
16 15 14 14 15 16 17 16 14 12 11 10 11 10 10 9 6 4 6 6 6 9 10 9 9 9 8 8 9 9 11 13 12 12 12 12 14 16 15 14 13 14 15 14 13 11 6 5 6 8 8 7 6 8 11 13 14 16 16 15 12 9 7 5 6 7 7 7 7 7 8 9 10 7 3 5 3 3 4 4 7 8 9 8 7 5 4
15 14 14 15 16 16 16 16 14 12 11 11 11 11 10 9 8 6 5 6 7 10 10 7 7 9 8 8 8 8 8 9 9 9 11 13 14 14 15 14 13 13 13 12 10 7 4 4 6 5 5 5 4 4 5 6 9 11 12 11 10 9 8 5 4 5 5 7 7 6 8 9 5 0 3 4 4 4 3 4 6 6 4 5 4 2 2
15 15 16 16 16 16 16 15 12 11 11 12 12 12 10 9 9 8 6 7 7 6 6 6 8 10 9 9 9 9 7 7 6 7 8 10 12 13 13 13 12 12 12 10 7 5 4 4 6 5 6 6 5 4 4 5 4 5 6 7 8 8 7 6 5 4 5 7 7 6 7 7 3 1 3 3 4 4 1 4 3 3 5 4 3 2 3
14 15 16 16 15 15 15 13 10 10 11 11 11 12 10 8 9 9 7 7 9 10 11 11 10 10 9 8 8 9 8 7 6 5 4 6 10 12 12 11 9 11 12 8 5 5 5 5 6 6 6 6 6 5 5 5 4 2 3 5 6 6 5 5 5 5 6 7 8 7 5 6 7 6 1 5 6 3 3 4 1 3 5 4 3 4 5
14 15 15 14 13 14 14 12 10 10 11 11 11 11 10 8 9 10 8 8 10 13 13 12 11 12 11 9 10 9 7 7 6 5 5 8 10 9 9 10 8 7 8 6 4 5 5 5 6 6 6 6 6 6 5 5 5 4 4 4 5 5 5 5 6 6 6 7 8 7 5 6 9 6 5 9 5 1 5 4 1 2 4 3 3 5 5
17 17 16 14 13 14 14 13 11 11 11 11 12 11 10 10 10 10 9 9 11 12 12 10 9 11 11 11 13 12 9 9 8 5 3 5 5 8 11 10 7 6 7 6 4 5 5 5 6 5 5 6 5 4 5 6 5 5 5 6 6 4 4 5 6 6 6 6 7 6 5 4 4 6 11 9 1 5 3 0 2 2 4 4 4 5 6
18 18 16 15 15 15 14 12 11 12 12 12 13 11 7 8 10 10 10 10 12 15 17 14 12 13 13 12 14 14 12 11 10 7 5 5 6 10 8 5 3 5 6 6 4 4 4 5 6 3 3 4 3 2 4 7 7 7 7 6 6 5 5 5 6 5 5 6 7 7 5 1 5 5 4 5 3 3 5 4 3 5 6 6 6 7 6
18 18 17 16 15 14 13 11 10 11 13 13 14 12 8 7 9 10 10 11 11 12 13 11 10 13 14 14 16 17 16 15 14 12 11 12 10 5 2 2 3 3 2 3 3 3 2 3 4 3 4 4 2 2 5 6 7 8 6 5 4 5 5 6 5 4 5 6 6 3 2 2 2 2 4 5 7 9 8 6 6 7 7 8 9 8 5
19 18 18 18 16 14 13 12 10 11 12 14 15 14 11 9 9 10 11 13 14 15 16 16 16 18 18 18 18 18 20 21 20 19 16 14 11 8 7 7 6 3 1 2 3 3 2 3 3 4 5 5 4 4 6 6 6 6 6 3 2 3 5 5 5 4 5 6 7 8 11 12 11 10 10 11 13 13 11 10 11 10 10 9 9 8 6
21 21 20 19 18 17 15 13 12 12 13 14 17 18 15 11 9 10 11 11 13 16 21 23 22 20 19 19 18 18 18 20 22 24 21 15 10 10 11 11 8 6 5 5 5 4 4 3 3 4 4 5 5 4 5 6 6 7 6 5 7 9 9 7 5 6 8 10 13 16 17 16 15 14 13 13 13 12 12 14 14 13 12 10 10 10 7
20 21 21 20 19 19 16 14 14 15 14 15 17 19 18 14 11 11 11 9 8 11 15 16 16 15 14 14 14 14 14 16 18 21 24 22 15 10 9 9 9 9 9 10 9 7 4 3 3 4 4 5 5 4 4 6 6 6 6 7 8 7 6 4 6 9 8 7 10 13 14 13 14 17 17 17 16 14 14 13 13 13 13 11 10 9 7
18 19 20 20 20 19 16 16 16 16 15 15 17 19 20 19 18 17 15 10 7 6 6 9 13 14 13 13 12 12 13 14 14 14 18 24 26 22 16 13 11 11 12 12 9 7 6 4 4 5 6 6 5 4 4 5 7 8 7 6 7 4 6 4 8 9 8 8 12 16 18 18 19 20 20 19 18 16 13 12 13 13 12 9 8 8 7
16 17 18 19 19 18 16 16 17 16 14 15 17 20 21 21 21 21 19 15 11 8 6 9 13 12 8 9 10 10 10 11 12 13 14 17 22 25 24 20 18 17 16 14 11 9 8 6 5 5 6 5 4 4 5 7 8 10 9 9 10 9 7 8 10 9 9 11 14 17 18 17 17 18 18 15 12 12 12 11 12 13 12 9 8 9 8
14 16 17 18 19 18 17 16 16 15 15 15 17 20 21 22 23 23 22 18 12 6 5 8 11 10 10 14 15 13 13 13 12 13 14 13 15 17 18 18 18 17 17 15 12 10 9 7 7 7 8 9 8 8 9 11 10 10 10 11 12 10 8 8 9 9 8 9 11 13 11 9 12 16 17 15 14 14 13 12 11 12 11 8 8 10 9
14 14 15 16 17 18 18 16 15 15 15 15 16 18 19 21 22 22 22 20 15 11 10 12 15 16 17 18 16 12 13 15 15 14 14 14 15 16 16 18 18 18 17 14 9 7 7 7 8 9 9 9 9 9 10 12 11 9 9 11 13 12 10 10 9 9 10 13 18 18 12 8 13 18 19 17 17 17 17 14 11 11 11 9 9 10 10
15 14 13 13 12 14 16 15 15 15 14 13 14 15 16 18 20 20 21 19 17 17 16 15 14 15 14 13 12 11 10 11 13 15 15 15 15 16 17 18 18 19 18 14 8 8 9 10 11 11 8 4 4 5 7 9 9 9 12 15 17 17 17 18 18 17 18 21 24 23 19 17 19 21 20 17 17 17 17 15 12 11 11 11 10 10 10
14 13 12 12 11 11 13 13 13 12 11 11 13 12 11 16 19 21 21 19 17 17 14 8 7 9 13 16 16 14 13 11 12 14 15 16 17 17 17 18 18 18 18 14 10 10 11 10 12 14 12 8 4 2 5 8 8 11 16 19 20 19 20 22 22 20 20 22 24 24 24 23 23 23 21 19 17 16 16 15 12 10 10 11 11 10 10
12 12 10 13 12 10 11 12 11 11 11 13 14 12 7 8 10 12 16 18 18 16 11 7 8 11 15 16 14 11 11 11 13 15 16 16 17 17 17 18 18 17 16 16 14 13 11 9 10 13 14 14 10 4 6 8 8 13 19 20 17 18 20 21 21 21 19 21 23 24 24 24 23 22 21 19 17 16 16 15 13 11 11 11 10 10 11
11 10 7 11 14 13 11 11 12 13 15 17 18 14 9 7 4 4 7 13 17 16 9 5 6 8 7 8 7 7 7 8 9 12 14 15 17 16 16 17 17 17 17 16 13 12 12 13 13 14 15 13 8 4 6 9 9 16 23 19 15 18 21 21 21 22 21 21 22 21 20 20 21 20 18 18 17 16 15 15 14 12 11 10 10 11 11
9 8 6 6 11 13 12 12 13 13 14 17 19 18 15 11 8 5 5 11 16 15 9 3 3 4 4 7 9 7 6 6 7 9 11 12 13 14 14 15 16 17 17 14 9 7 10 13 13 14 15 13 8 4 7 12 17 22 26 23 21 23 24 23 23 23 23 22 22 20 19 20 19 19 18 18 17 15 14 14 13 11 10 9 9 10 11
8 7 7 5 6 10 12 12 11 12 13 16 19 19 17 13 8 5 6 12 13 11 8 4 2 3 5 8 9 6 7 8 8 7 7 8 10 11 11 11 11 10 11 13 13 11 11 12 11 11 12 14 12 8 8 14 21 25 25 25 24 24 24 24 23 21 21 22 22 22 22 21 20 20 21 20 18 15 14 13 12 12 12 12 11 11 11
8 7 7 6 4 7 10 10 10 12 14 14 15 17 16 13 8 4 6 9 9 6 5 5 4 4 4 6 6 3 4 7 8 7 5 6 9 10 7 6 6 7 8 11 13 11 10 11 11 9 9 10 9 7 8 14 22 25 24 24 24 23 23 22 20 19 21 22 22 21 21 21 21 23 23 20 17 15 14 14 13 13 13 13 12 12 12
7 6 7 7 6 5 5 7 8 10 12 12 13 13 13 12 8 5 7 9 7 5 5 5 5 4 4 5 5 3 3 6 8 8 6 4 5 8 8 5 4 7 8 9 9 9 10 12 10 6 6 8 8 10 14 19 23 25 25 24 23 21 21 21 20 20 22 23 23 22 19 19 22 23 21 19 17 15 15 15 15 14 14 14 14 13 13
7 6 5 5 4 3 4 6 8 9 9 10 11 9 8 8 7 6 10 12 11 9 8 6 5 7 8 8 5 3 3 4 5 5 6 4 3 6 8 6 4 5 5 7 8 10 13 14 10 6 7 11 14 18 23 25 26 26 26 25 23 21 21 21 20 21 22 23 23 22 20 19 21 22 20 19 18 16 15 16 16 15 15 15 14 14 14
5 3 1 1 1 2 3 4 7 8 8 8 8 7 7 8 6 5 9 11 10 10 11 9 9 12 13 10 7 6 4 2 3 3 4 4 4 5 6 6 5 4 3 5 9 12 12 10 7 7 11 16 21 27 29 29 28 27 25 24 22 20 20 19 19 20 21 20 20 20 19 18 19 20 21 21 18 16 16 16 15 15 15 14 15 15 14
1 1 2 2 3 3 2 3 5 7 7 8 8 5 5 6 4 3 6 7 6 8 10 10 12 17 16 11 11 12 10 5 3 3 3 4 3 3 3 3 3 3 3 4 7 9 8 5 4 7 10 11 18 27 30 29 26 24 21 19 18 17 17 19 20 21 21 20 19 20 21 20 20 21 21 21 19 18 18 17 14 14 14 15 15 15 15
1 2 3 4 4 4 3 3 4 6 7 9 7 3 3 5 5 3 4 5 5 7 9 10 12 16 17 14 12 12 11 9 6 3 2 3 4 3 2 2 2 2 4 5 5 6 6 5 5 8 8 8 13 21 24 21 18 16 15 15 16 16 17 18 18 19 20 21 20 21 22 23 22 22 22 21 20 19 18 18 16 15 15 16 16 16 17
2 3 4 4 4 5 5 5 6 7 6 5 3 2 2 4 5 4 4 4 4 5 9 11 11 11 14 15 13 10 9 11 9 4 2 2 4 3 2 1 1 2 4 5 5 5 5 5 6 8 9 11 16 18 16 14 13 13 12 13 14 14 13 13 14 15 17 18 18 19 20 20 18 17 17 19 19 18 18 17 16 15 16 16 16 15 16
5 5 4 4 4 5 6 7 6 4 2 1 2 3 3 3 4 5 5 6 6 5 8 11 10 7 8 12 13 9 7 7 6 3 2 2 4 5 3 2 1 3 4 5 5 5 5 6 8 8 9 14 16 15 13 13 13 12 11 11 11 11 11 12 13 14 15 16 17 18 18 18 16 14 14 16 18 18 18 18 17 16 16 17 16 16 15
7 6 5 4 5 8 7 5 4 3 2 2 2 2 2 3 4 4 4 6 8 8 7 8 6 4 6 8 8 6 5 6 5 4 2 2 2 3 3 3 3 3 4 5 5 5 6 7 8 8 11 15 15 13 12 12 11 10 11 11 10 10 11 11 12 13 14 15 17 16 15 15 14 14 14 14 15 17 18 18 17 16 16 16 17 16 14
5 4 3 3 6 7 4 3 5 5 3 3 4 4 4 5 5 5 6 7 8 8 8 9 8 6 5 7 6 4 4 5 5 4 3 3 2 2 3 4 4 4 5 5 5 5 6 7 8 11 15 17 15 13 12 11 10 10 11 10 9 11 11 10 10 11 12 13 15 15 14 13 13 12 12 12 13 15 16 15 14 14 15 16 17 16 14
5 6 4 3 4 5 4 2 4 5 4 4 4 5 5 6 6 7 7 8 8 7 7 8 8 6 4 5 5 4 3 3 3 3 3 2 2 3 4 3 3 4 5 5 5 6 7 7 8 12 15 15 14 13 12 11 10 10 11 10 9 10 10 10 10 10 11 12 14 14 14 14 13 13 13 13 13 13 14 14 12 13 14 16 16 16 16
7 7 5 2 3 5 5 3 3 4 4 5 7 9 9 10 11 9 4 4 8 10 9 8 9 8 6 5 3 3 5 4 3 3 4 3 2 4 4 4 4 3 3 5 7 7 8 9 10 11 11 13 13 13 12 11 10 10 10 10 10 9 10 11 11 11 11 12 13 13 13 14 15 15 15 14 14 13 14 13 12 13 15 17 16 16 16
7 6 4 4 4 5 5 6 6 7 8 10 13 14 14 15 16 14 8 6 8 9 8 8 8 8 6 5 4 4 6 6 4 3 4 3 3 3 3 4 4 3 4 7 8 7 8 9 8 7 8 10 12 14 13 12 10 10 10 10 10 9 10 11 11 11 12 12 12 13 13 14 15 16 16 15 15 14 13 12 13 15 16 16 16 16 17
6 5 4 4 3 3 6 9 11 13 15 17 18 19 19 18 17 16 13 10 8 8 8 8 7 5 4 5 5 4 5 5 4 3 4 3 3 3 3 4 4 4 6 8 8 8 9 8 4 5 7 9 11 12 12 11 9 9 10 10 10 9 10 11 11 11 12 12 13 14 14 14 15 15 15 14 15 14 13 14 16 17 18 17 17 17 18
9 7 5 5 5 7 11 13 13 13 16 19 19 19 19 19 18 16 14 10 7 7 6 5 4 3 3 4 4 3 3 4 3 3 3 4 4 3 3 5 7 7 7 7 7 9 12 11 8 8 9 10 9 10 11 10 9 8 9 9 9 9 10 11 11 12 12 12 13 14 14 15 15 15 14 14 14 13 13 15 16 18 18 17 18 18 18
11 9 7 7 8 9 12 13 11 10 13 17 18 17 17 18 18 17 14 10 7 5 4 4 4 4 3 4 3 3 4 4 4 4 5 5 4 4 5 7 8 7 6 7 9 12 14 14 13 14 13 10 8 8 9 9 8 8 9 9 10 10 11 12 12 13 14 14 14 15 15 15 15 15 14 14 13 12 12 15 17 17 17 18 19 19 19
8 8 10 15 17 15 13 12 11 10 11 13 16 16 16 17 16 13 9 9 8 7 5 5 5 4 4 4 4 3 4 4 4 5 6 6 4 5 7 9 8 7 9 13 16 16 16 15 14 15 14 12 10 9 9 8 8 9 10 11 12 12 13 13 13 14 14 15 15 15 15 15 15 15 15 14 14 13 13 15 17 18 18 18 19 19 19
7 8 12 18 22 23 22 20 19 18 18 19 21 20 18 18 16 10 5 8 9 9 9 8 6 4 3 4 4 4 4 5 5 6 7 6 5 7 9 10 11 13 16 18 18 17 17 15 15 16 16 14 11 11 11 11 11 12 13 13 13 14 14 14 14 15 15 16 16 15 15 15 15 14 14 14 14 15 16 18 19 19 19 19 19 18 18
Wind_Direction
328 333 336 335 335 340 346 349 349 348 347 347 346 346 336 300 294 307 302 298 313 252 272 286 277 289 318 315 313 322 323 306 305 303 270 269 276 266 276 286 289 289 293 297 293 299 301 281 278 285 277 311 6 80 109 66 321 286 275 287 14 353 272 268 279 272 265 260 264 290 284 296 296 280 282 289 284 283 282 293 308 294 291 300 293 289 258
325 329 334 333 333 338 343 348 351 350 349 349 346 344 329 304 297 288 268 259 273 252 268 301 306 327 334 327 317 311 301 294 301 301 289 292 293 275 281 290 292 297 294 284 286 293 293 281 282 285 281 324 339 310 343 90 289 283 308 342 358 329 277 279 285 283 266 234 227 273 261 292 315 287 293 293 282 285 287 287 285 270 281 294 285 289 294
321 326 330 329 327 333 341 347 350 350 351 351 347 338 320 306 294 277 256 226 241 264 276 312 302 317 342 351 337 317 307 303 306 305 298 289 280 282 300 301 287 285 282 280 286 282 270 282 289 289 286 283 294 293 169 136 239 255 74 352 327 301 290 294 283 280 276 260 288 325 307 304 276 265 277 278 275 280 283 284 280 271 284 291 275 286 287
316 320 322 323 322 328 339 348 351 350 351 351 348 337 318 309 305 297 280 231 237 258 249 238 257 302 352 3 337 325 324 317 312 308 298 291 285 288 303 308 301 295 295 297 295 284 272 274 273 278 284 282 291 295 263 259 264 196 162 232 289 284 276 271 268 271 278 286 301 317 315 300 288 282 279 274 270 271 273 271 267 273 294 287 265 273 282
308 314 318 318 318 324 336 346 352 351 351 351 348 337 309 291 304 323 323 288 274 273 254 250 255 298 339 352 328 322 319 314 314 307 293 305 319 305 290 296 298 305 318 311 296 289 282 274 274 280 282 286 295 293 282 282 265 162 169 214 238 259 267 263 268 271 274 283 289 292 290 283 283 286 284 281 277 269 264 260 264 278 290 275 274 295 297
301 314 316 313 314 321 332 342 351 352 350 350 346 333 302 294 310 332 356 332 286 299 337 340 312 294 298 296 294 300 296 299 307 306 302 307 314 309 290 285 288 301 320 318 301 302 301 293 293 293 287 292 305 301 290 287 166 157 224 262 226 263 275 271 276 276 274 277 278 276 275 273 277 282 281 280 277 269 263 260 263 268 269 270 286 298 291
299 312 311 309 313 318 323 334 347 352 348 347 346 326 312 323 322 330 347 332 293 299 319 331 305 277 274 278 275 279 280 286 298 306 310 307 306 307 295 292 306 315 316 309 297 300 304 302 307 310 302 296 297 298 295 295 274 249 268 282 312 293 275 269 276 278 278 280 279 279 282 284 285 284 278 277 276 271 267 264 265 265 264 272 282 281 277
296 305 304 305 313 314 316 327 339 345 344 346 344 313 308 325 329 325 329 321 299 293 290 288 288 274 260 265 269 271 276 285 299 305 304 304 314 314 299 298 319 324 310 299 296 305 310 305 304 304 302 295 283 275 279 289 299 292 275 221 176 237 266 287 291 286 283 283 281 282 289 295 293 287 282 280 277 274 269 265 266 266 265 273 284 286 283
296 302 303 308 312 310 309 323 333 336 337 339 336 316 306 313 314 313 312 306 300 297 285 270 274 274 270 270 271 272 276 285 294 297 290 283 284 299 312 319 330 326 309 300 305 316 310 296 292 290 283 279 274 270 264 268 291 296 282 245 189 193 255 289 290 283 284 286 285 288 295 295 287 282 283 282 277 277 281 277 272 269 271 275 278 281 283
300 303 306 311 313 308 304 317 327 327 330 332 321 311 316 318 312 307 301 291 293 297 292 282 276 277 283 281 266 262 264 276 287 292 287 278 275 297 331 330 328 321 307 303 310 315 306 294 292 289 282 278 273 265 259 257 262 275 285 279 248 238 270 287 286 285 288 290 294 302 306 297 286 280 287 297 294 294 298 295 290 288 282 275 268 271 289
303 305 304 304 307 307 307 312 315 314 319 319 304 298 318 326 319 312 305 287 280 285 284 275 275 288 307 312 292 282 278 282 287 288 292 294 295 306 313 309 306 297 291 295 300 302 299 296 294 286 278 275 273 267 261 254 249 250 261 272 268 267 274 283 283 283 286 291 299 303 293 285 283 219 219 265 285 292 297 297 298 296 282 269 266 274 289
300 301 299 297 300 304 303 304 304 303 306 307 300 293 297 306 310 307 297 285 287 289 284 283 307 328 332 312 297 292 288 288 291 289 286 291 295 293 292 292 290 280 285 296 302 302 301 300 295 286 274 264 258 257 256 252 247 245 247 251 257 260 263 270 273 272 277 287 294 286 274 279 310 268 257 246 220 261 304 298 292 288 281 275 273 276 288
293 295 298 302 306 305 301 301 301 298 295 299 299 288 281 291 303 306 294 288 281 280 283 302 318 323 318 307 306 302 293 291 294 294 288 286 288 287 284 282 279 282 290 299 306 308 308 305 297 290 278 261 248 245 244 243 243 242 241 241 244 244 246 257 267 268 269 274 273 267 275 303 311 300 307 58 118 335 324 304 299 304 295 286 282 284 299
293 295 298 301 302 301 300 302 301 294 286 290 294 288 282 286 285 284 294 288 276 284 291 299 306 302 294 302 313 315 305 297 296 296 292 287 284 283 284 281 280 287 293 297 301 301 297 300 299 294 289 272 247 246 246 240 237 238 238 238 239 241 239 237 251 263 270 273 269 269 281 296 301 303 0 60 55 5 358 314 299 297 283 278 285 286 291
293 296 297 296 296 298 300 300 297 289 280 282 290 289 284 278 265 259 274 280 283 293 290 292 330 337 323 311 313 316 310 301 299 303 300 290 281 279 283 284 283 286 287 285 288 289 281 285 291 295 299 294 283 280 272 253 237 232 234 238 243 250 252 246 251 263 274 277 274 273 278 281 281 7 69 50 48 61 46 306 294 295 284 289 302 305 297
288 289 292 295 296 296 296 295 290 282 278 281 287 286 279 267 254 248 256 271 275 283 287 304 341 345 327 311 310 306 297 294 305 310 303 292 286 287 292 289 278 273 275 278 283 280 270 274 281 287 290 290 300 304 287 280 260 206 203 225 241 252 259 263 266 267 268 269 268 268 269 271 284 81 120 114 91 82 358 285 297 20 41 36 7 330 324
281 284 289 295 298 296 295 294 288 278 275 278 282 281 274 261 251 245 245 255 258 264 276 289 302 305 300 299 298 291 290 299 300 287 280 292 296 298 304 305 288 265 261 270 282 269 259 260 268 276 279 283 296 298 284 285 285 237 201 222 233 238 247 251 249 249 250 251 255 265 268 275 302 312 234 134 109 87 296 282 301 33 27 32 10 331 327
276 282 287 292 296 297 295 291 285 279 276 274 273 272 269 261 249 237 235 248 257 265 275 285 288 284 286 293 293 288 293 302 292 278 278 284 287 300 316 320 314 281 256 253 267 270 272 272 264 268 280 285 289 290 287 289 281 264 257 251 235 227 227 231 236 243 246 246 251 263 269 282 304 319 112 116 107 297 289 289 317 14 354 0 357 330 321
273 279 286 291 296 298 293 285 282 281 275 269 268 269 268 264 253 235 228 241 252 260 272 285 287 280 281 287 286 280 277 273 268 272 283 273 297 341 333 307 295 284 263 255 269 273 267 263 261 266 277 280 286 299 293 284 278 277 283 277 260 236 218 224 236 239 241 245 251 259 264 294 2 74 112 121 200 289 318 262 214 306 339 330 319 313 311
272 274 279 286 292 293 288 283 282 281 275 266 263 263 258 255 253 240 229 235 251 266 273 277 280 282 281 276 271 273 277 274 268 270 271 273 324 350 337 294 306 324 286 265 269 266 261 272 280 285 285 282 298 333 296 279 277 284 290 286 281 274 257 249 246 239 243 251 250 255 267 344 66 82 124 154 214 304 8 12 298 313 329 315 304 302 302
267 267 269 274 282 286 285 282 280 278 273 264 257 253 243 241 252 250 238 233 242 261 271 274 281 285 281 272 266 265 263 261 264 272 281 288 301 319 306 283 333 353 325 299 291 271 277 305 307 299 293 292 290 296 301 296 288 291 298 304 306 290 268 265 264 250 253 252 237 243 320 16 62 316 287 265 268 291 315 319 310 319 319 305 298 295 296
261 261 261 263 269 275 278 278 279 278 270 259 251 248 242 241 254 259 248 237 239 248 258 267 276 281 278 273 268 264 260 259 260 263 272 283 281 261 261 290 298 275 271 336 316 301 318 331 322 307 299 296 296 306 311 302 286 288 295 298 297 280 275 291 299 281 273 271 268 286 300 298 292 294 290 283 283 287 287 282 288 300 303 297 292 290 293
259 258 258 258 260 265 269 270 272 275 271 258 249 247 246 246 254 258 253 248 251 261 269 274 277 280 279 274 271 272 273 269 261 256 255 262 271 265 266 278 285 280 279 279 280 294 309 300 295 303 297 288 291 301 298 284 276 285 291 285 281 285 289 292 288 282 280 273 268 272 279 286 297 302 295 286 284 285 281 278 279 284 287 288 287 287 291
261 258 257 257 257 260 265 265 263 265 266 261 254 251 249 245 242 248 252 252 258 275 283 279 269 267 276 282 280 278 275 271 267 260 250 244 247 258 260 262 268 272 271 271 273 282 290 276 261 265 269 275 283 284 282 283 280 283 290 285 280 296 333 324 274 277 284 274 266 275 285 300 309 304 296 290 286 281 277 275 275 276 276 279 281 281 282
264 258 255 255 256 257 260 262 262 261 260 258 255 251 248 245 243 246 250 249 247 263 285 283 273 272 280 286 283 275 270 269 270 265 251 242 242 245 245 251 264 270 272 278 282 279 277 268 254 257 263 264 265 265 268 277 279 280 285 280 273 311 15 340 276 271 272 270 276 284 289 293 293 289 286 286 288 289 286 277 270 267 264 270 276 269 262
268 258 251 249 249 250 250 254 257 258 258 256 251 247 246 247 248 249 249 248 247 248 253 274 286 294 294 283 276 272 273 270 259 254 252 246 244 246 246 251 263 271 274 280 282 273 263 258 255 262 265 261 264 272 273 279 285 284 279 276 282 295 304 289 280 280 277 274 278 280 279 279 283 288 291 293 302 314 311 296 279 266 258 260 268 262 257
280 266 254 247 244 241 242 247 252 253 255 255 250 247 246 246 249 252 250 245 244 247 245 261 282 298 297 285 277 269 268 269 258 249 250 246 241 243 242 243 251 260 264 269 271 261 249 249 254 255 262 276 285 281 273 276 281 280 275 275 280 282 277 272 276 277 271 271 275 278 279 281 286 294 300 303 308 309 301 294 291 282 271 263 263 262 257
294 277 258 248 245 240 237 240 246 249 252 252 248 245 246 246 249 254 255 248 242 245 259 275 285 293 295 293 288 280 271 264 253 245 245 243 239 239 239 240 244 250 254 257 260 253 243 249 259 260 263 274 278 270 270 275 272 265 266 268 264 260 260 266 270 270 273 280 282 285 290 284 276 281 288 292 294 292 286 281 281 278 272 266 262 262 257
302 287 259 243 244 244 238 239 243 244 245 247 241 239 244 247 246 248 250 248 243 245 259 280 287 284 288 294 296 294 283 263 246 241 243 243 241 240 241 243 245 249 253 252 248 255 259 257 260 263 257 241 254 274 277 274 267 262 265 267 264 260 258 260 263 269 275 279 282 284 283 277 273 277 284 287 287 287 285 281 275 267 264 261 258 258 257
310 299 262 232 231 238 232 229 232 233 235 235 226 219 235 251 252 248 245 243 238 238 248 271 282 281 291 294 288 283 278 263 246 241 241 242 245 245 244 245 247 250 254 251 241 248 259 256 253 257 249 224 215 277 276 264 270 272 266 265 266 264 259 258 260 264 270 275 279 279 277 275 275 277 279 281 281 279 280 279 275 267 260 258 260 258 252
319 312 268 224 217 221 219 218 224 233 238 230 212 198 214 257 265 256 243 234 228 227 231 250 273 286 295 291 281 277 277 264 248 244 243 243 246 247 246 247 248 245 246 248 245 243 249 250 251 259 253 232 213 220 267 268 275 272 265 261 261 263 264 264 263 263 267 272 274 274 271 269 268 268 270 273 273 272 274 275 270 259 249 249 256 257 250
321 324 291 231 220 221 225 233 241 245 242 230 216 210 222 239 252 257 232 217 215 215 215 241 280 287 292 291 284 278 275 265 251 246 244 240 241 245 245 244 246 244 242 246 249 247 246 247 250 258 258 239 210 213 264 256 252 262 266 270 272 270 271 272 270 271 273 272 270 270 270 266 262 260 263 268 271 272 274 273 267 256 241 233 240 249 249
316 325 320 258 232 229 234 242 247 244 237 228 223 227 234 238 246 260 217 191 197 206 208 215 281 274 274 301 305 284 253 251 247 239 239 237 234 238 241 241 245 248 242 235 233 241 246 247 248 253 254 243 223 232 259 249 249 260 269 275 278 277 277 279 277 277 278 274 267 263 262 264 264 262 264 268 270 271 271 268 263 252 234 220 226 237 237
305 303 310 293 246 233 237 241 239 229 219 218 223 229 232 234 244 251 196 173 177 195 210 216 259 270 269 292 300 276 242 252 247 221 220 229 225 230 243 244 239 239 232 224 225 236 246 248 250 255 253 245 238 239 251 253 257 264 270 273 274 275 277 279 281 281 278 273 266 259 256 259 263 264 266 268 267 266 265 262 252 241 233 230 232 235 232
301 290 294 301 280 245 239 235 226 216 209 212 224 232 232 232 239 237 191 176 171 182 202 213 234 260 268 280 286 259 233 249 242 215 212 234 230 231 248 253 230 222 222 223 228 236 240 239 242 248 249 243 238 231 241 256 264 267 270 273 275 277 278 280 284 285 281 277 271 263 256 255 255 255 257 260 259 258 257 253 244 239 238 237 233 231 231
304 287 276 280 289 273 237 219 214 210 208 214 227 234 231 228 225 209 202 207 208 201 197 206 221 228 242 268 282 276 242 245 242 228 223 235 235 228 229 234 239 242 240 235 237 244 241 233 232 240 241 234 236 240 247 257 264 267 270 274 278 279 281 282 284 284 282 281 277 267 257 251 252 252 252 253 253 251 249 247 242 237 236 236 233 230 231
305 303 285 271 264 244 218 213 210 208 213 225 231 227 212 204 196 191 206 223 235 234 228 234 238 233 241 261 274 257 229 246 252 230 208 207 235 227 215 216 244 252 243 240 244 248 245 239 235 240 241 240 249 256 257 259 264 270 275 279 278 274 274 278 281 281 281 280 275 268 259 252 251 251 250 251 251 248 246 245 240 235 232 233 233 230 230
296 301 322 140 211 227 229 224 216 215 218 215 204 188 178 179 182 198 213 225 241 240 230 234 245 242 245 254 248 223 216 257 287 247 203 203 230 224 208 215 233 231 235 253 249 245 246 243 236 245 253 254 258 261 261 262 266 272 277 280 279 275 274 276 280 281 281 279 275 270 265 256 248 248 253 255 254 255 256 252 244 237 234 234 234 233 231
277 177 178 224 246 244 239 237 235 233 217 191 175 166 170 176 178 200 207 211 230 231 220 228 242 239 236 241 243 238 238 251 269 256 217 202 212 218 208 214 215 212 244 267 247 235 237 235 226 244 257 256 255 257 258 258 261 266 271 274 278 278 274 273 273 274 275 277 278 277 273 262 248 246 252 256 255 257 262 261 253 242 234 232 233 233 229
199 210 251 263 251 236 237 235 216 198 182 174 172 173 184 189 197 213 206 203 221 226 219 226 235 230 226 235 246 240 229 229 242 269 253 210 212 236 252 231 197 212 248 258 248 244 257 266 254 253 259 262 261 261 259 257 259 266 272 273 273 270 266 266 269 270 270 271 274 277 275 267 255 248 247 248 246 247 251 255 251 241 233 233 233 230 228
247 237 253 264 259 247 230 194 174 171 167 166 178 207 209 203 212 226 226 224 236 232 223 225 231 223 217 225 236 235 221 222 235 262 282 217 206 217 242 251 231 242 253 258 258 259 264 268 262 260 265 273 278 280 279 275 274 277 277 275 274 274 273 275 280 281 279 277 278 282 282 277 268 257 248 246 247 249 250 252 249 241 234 233 230 225 226
238 239 253 266 252 213 183 167 165 173 174 172 209 225 222 210 211 220 226 232 245 242 220 219 230 231 209 211 224 231 219 210 213 216 222 217 210 214 230 250 225 232 249 261 264 262 259 259 262 264 267 273 280 288 292 289 283 280 277 278 283 290 295 294 293 294 293 290 290 292 291 286 279 268 256 253 256 257 255 252 248 240 233 231 228 224 223
243 252 260 247 194 172 172 184 196 199 205 222 221 222 220 212 211 218 220 224 236 241 219 197 197 204 194 196 209 218 210 200 191 181 192 215 207 211 237 242 226 241 264 267 259 256 255 254 259 267 275 280 287 293 294 291 287 281 279 284 290 294 294 293 292 293 294 293 293 294 294 291 283 274 265 260 258 256 254 250 244 237 231 226 222 219 216
239 229 222 202 177 168 173 192 184 185 207 223 205 209 226 222 214 222 231 229 229 229 213 196 193 199 196 191 191 195 199 197 187 182 207 231 224 214 236 240 235 250 267 264 252 254 258 258 262 270 279 288 297 299 293 289 285 279 281 288 293 294 295 295 292 291 291 292 294 296 296 295 292 284 276 269 262 259 259 254 242 234 227 218 212 214 215
201 180 172 182 182 177 178 177 180 198 228 231 208 218 240 242 238 242 246 241 238 233 216 203 205 206 187 174 182 194 186 168 172 192 212 224 212 213 231 254 268 267 263 258 252 253 253 252 257 268 281 295 302 294 282 277 276 276 282 289 293 298 302 303 301 298 296 295 297 297 296 294 292 287 281 277 270 264 262 254 238 225 215 205 203 212 215
196 188 190 221 210 190 192 204 203 204 214 219 219 225 235 247 257 265 267 245 249 249 235 214 215 218 200 168 165 192 186 173 187 211 206 209 234 231 231 255 272 265 251 251 251 250 252 257 264 276 294 310 311 298 287 285 285 284 285 288 289 294 299 301 301 302 300 297 297 297 295 294 291 286 281 278 271 263 259 252 235 216 205 201 204 211 209
209 203 209 243 240 206 206 228 237 238 243 248 248 248 252 258 264 269 274 275 269 262 236 211 218 235 223 189 181 208 203 196 208 215 198 210 256 252 223 237 246 230 233 247 248 248 256 266 279 303 320 318 309 300 292 289 288 285 284 286 287 287 290 293 297 299 302 304 306 305 302 298 293 287 281 276 269 261 254 243 224 208 201 203 209 211 205
216 206 206 231 239 207 216 234 245 250 256 261 264 265 266 267 268 270 270 263 256 256 245 223 217 236 226 192 193 224 220 204 213 217 196 208 254 250 225 234 237 228 238 249 252 256 264 272 305 347 328 304 299 297 294 292 292 283 275 277 283 285 288 291 293 294 298 302 304 304 304 303 298 291 283 276 269 259 245 229 214 204 202 205 208 205 200
224 218 221 240 248 244 246 252 257 259 260 262 263 264 265 265 264 265 266 256 237 241 249 224 192 194 199 178 183 223 223 193 195 212 199 206 231 238 231 243 245 241 242 245 248 259 270 280 304 318 300 287 287 292 293 299 305 293 275 273 280 282 284 286 288 290 293 295 294 293 295 298 297 292 284 275 268 256 237 220 209 202 204 209 209 203 199
234 228 227 232 239 249 256 258 261 264 264 264 264 264 266 267 264 262 262 254 230 205 183 172 181 204 214 194 194 231 223 199 203 228 222 216 222 232 240 249 252 250 255 263 269 276 282 289 295 295 288 283 284 286 284 286 284 272 266 272 281 283 284 285 286 288 290 291 289 288 289 290 291 288 281 273 266 253 234 219 210 206 210 215 211 203 201
239 232 231 232 235 244 255 259 261 266 269 271 274 274 271 270 272 270 256 236 220 201 189 196 202 206 211 212 219 232 220 201 208 229 233 229 227 230 238 246 252 259 271 279 285 289 291 289 287 286 287 286 285 284 281 276 268 261 260 264 272 279 284 286 285 285 285 284 283 284 284 284 284 283 278 271 261 245 227 216 211 210 214 217 212 207 205
228 233 241 240 240 245 251 255 261 268 270 273 279 283 279 276 279 279 237 209 219 228 228 222 211 197 206 220 226 234 238 231 227 231 234 232 231 236 245 256 265 273 279 284 287 290 290 290 291 292 291 287 282 282 284 283 279 275 271 268 271 277 281 282 282 284 284 282 280 279 278 277 279 279 274 264 251 236 224 218 215 214 216 219 218 214 211